Regional Weather Roundup
Issued by NWS

Home | Current Version | Previous Version | Graphics & Text | Print | Product List | Glossary On
Versions: 1 2 3 4 5 6 7 8 9 10 11 12 13 14 15 16 17 18 19 20 21 22 23 24 25 26 27 28 29 30 31 32 33 34 35 36 37 38 39 40 41 42 43 44 45 46 47 48 49 50
000
ASUS43 KFSD 241010
RWRSD

WEATHER ROUNDUP FOR SOUTH DAKOTA
NATIONAL WEATHER SERVICE SIOUX FALLS SD
400 AM CST TUE JAN 24 2017

NOTE: "FAIR" INDICATES FEW OR NO CLOUDS BELOW 12,000 FEET WITH NO
SIGNIFICANT WEATHER AND/OR OBSTRUCTIONS TO VISIBILITY.


SDZ001>005-009-010-012>017-241100-
NORTHWEST AND NORTH CENTRAL SOUTH DAKOTA

CITY           SKY/WX    TMP DP  RH WIND       PRES   REMARKS
BUFFALO          N/A     23  19  85 N12       29.72R WCI  12
FAITH            N/A     24  22  91 N16       29.77R WCI  11
MOBRIDGE       CLOUDY    28  23  81 NE16      29.79R WCI  16
$$

SDZ012>016-024>037-041>051-057-063-072>074-241100-
SOUTHWEST AND SOUTH CENTRAL SOUTH DAKOTA

CITY           SKY/WX    TMP DP  RH WIND       PRES   REMARKS
RAPID CTY ARPT CLOUDY    22  21  96 N20G26    29.72S FOG     WCI   7
PIERRE         CLOUDY    28  26  92 NE12      29.76S FOG     WCI  18
CUSTER         LGT SNOW  22  19  89 NE6       29.57S FOG     WCI  14
ELLSWORTH AFB  FOG       23  23 100 VRB7      29.72  VSB 5/8 WCI  15
PHILIP         FRZ RAIN  26  26 100 N14       29.75R VSB 1   WCI  14
PINE RIDGE     LGT SNOW  24  23  96 N14       29.67S FOG     WCI  12
SPEARFISH      SNOW      18  18 100 N7        29.72F VSB 1/2 WCI   8
WINNER         FOG       31  30  96 E9        29.71F VSB 1/2 WCI  23
$$

SDZ004>011-016>023-039-040-241100-
NORTHEAST SOUTH DAKOTA

CITY           SKY/WX    TMP DP  RH WIND       PRES   REMARKS
ABERDEEN       CLOUDY    29  26  89 NE7       29.84S WCI  22
WATERTOWN      CLOUDY    29  26  89 E7        29.81S WCI  22
BROOKINGS      CLOUDY    30  28  92 E5        29.80S WCI  25
SISSETON         N/A     31  29  92 CALM      29.85R
$$

SDZ017-020-022-023-036>040-048>070-241100-
SOUTHEAST SOUTH DAKOTA

CITY           SKY/WX    TMP DP  RH WIND       PRES   REMARKS
SIOUX FALLS    CLOUDY    32  30  92 SE8       29.80S WCI  25
HURON          CLOUDY    31  29  92 NE6       29.81R WCI  25
CHAMBERLAIN    CLOUDY    32  31  97 E7        29.75S FOG     WCI  25
MITCHELL       CLOUDY    32  30  92 E8        29.79S WCI  25
YANKTON        CLOUDY    30  27  86 E8        29.76F WCI  23
$$

ABBREVIATIONS USED IN REMARKS
   TC - TEMPERATURE IN CELSIUS
  WCI - WIND CHILL INDEX
   HX - HEAT INDEX
  VSB - VISIBILITY




USA.gov is the U.S. government's official web portal to all federal, state and local government web resources and services.